Falfurrias, TX

1:58 PM CDT on June 25, 2017 (GMT -0500)
Falfurrias

Weather History for KBKS - January, 2013

Change the Weather History Date:

Tuesday, January 29, 2013

  Actual Average (KNQI) Record (KNQI)
Temperature  
Mean Temperature 82 °F -  
Max Temperature 91 °F 67 °F 92 °F (2013)
Min Temperature 73 °F 48 °F 1 °F (2016)
Cooling Degree Days 17    
Growing Degree Days 32 (Base 50)    
Moisture  
Dew Point 65 °F    
Average Humidity 62    
Maximum Humidity 81    
Minimum Humidity 30    
Precipitation  
Precipitation 0.00 in - - ()
Sea Level Pressure  
Sea Level Pressure 29.72 in    
Wind  
Wind Speed 18 mph (South)    
Max Wind Speed 28 mph    
Max Gust Speed 36 mph    
Visibility 10 miles    
Events      
Averages and records for this station are not official NWS values.
T = Trace of Precipitation, MM = Missing Value Source: NWS Daily Summary

Daily Weather History Graph

Daily Weather History Graph

Search for Another Location

Airport or City:

Trip Planner

Search our weather history database for the weather conditions in past years. The results will help you decide how hot, cold, wet, or windy it might be!

Date:

Astronomy

Jan. 29, 2013 Rise Set
Actual Time 7:19 AM CST 6:12 PM CST
Civil Twilight 6:55 AM CST 6:36 PM CST
Nautical Twilight 6:27 AM CST 7:04 PM CST
Astronomical Twilight 5:59 AM CST 7:32 PM CST
Moon 8:48 PM CST (1/29) 8:35 AM CST (1/29)
Length of Visible Light 11h 41m
Length of Day
10h 52m
Waning Gibbous, 93% of the Moon is Illuminated
Jan 29
Waning Gibbous
Feb 3
Last Quarter
Feb 10
New
Feb 17
First Quarter
Feb 25
Full

Hourly Weather History & Observations

Time (CST) Temp. Heat Index Dew Point Humidity Pressure Visibility Wind Dir Wind Speed Gust Speed Precip Events Conditions
12:15 AM 76.3 °F - 70.0 °F 81% 29.88 in 7.0 mi SSE 13.8 mph 21.9 mph N/A   Overcast
12:35 AM 76.1 °F - 69.8 °F 81% 29.88 in 7.0 mi SSE 15.0 mph 20.7 mph N/A   Overcast
12:55 AM 76.3 °F - 69.8 °F 80% 29.86 in 10.0 mi SSE 16.1 mph 25.3 mph N/A   Overcast
1:15 AM 76.3 °F - 69.4 °F 79% 29.84 in 10.0 mi SSE 24.2 mph 28.8 mph N/A   Overcast
1:35 AM 76.5 °F - 69.4 °F 79% 29.83 in 10.0 mi SSE 19.6 mph 25.3 mph N/A   Overcast
1:55 AM 76.5 °F - 69.4 °F 79% 29.83 in 7.0 mi SSE 18.4 mph 24.2 mph N/A   Overcast
2:15 AM 77.0 °F - 68.9 °F 76% 29.82 in 10.0 mi SSE 21.9 mph 34.5 mph N/A   Overcast
2:35 AM 77.0 °F - 68.9 °F 76% 29.81 in 10.0 mi SSE 23.0 mph 31.1 mph N/A   Overcast
2:55 AM 76.6 °F - 68.9 °F 77% 29.80 in 10.0 mi SSE 25.3 mph 29.9 mph N/A   Overcast
3:15 AM 76.5 °F - 68.9 °F 77% 29.80 in 10.0 mi South 18.4 mph 25.3 mph N/A   Overcast
3:35 AM 76.6 °F - 69.1 °F 77% 29.81 in 10.0 mi South 21.9 mph 27.6 mph N/A   Overcast
3:55 AM 76.5 °F - 68.9 °F 77% 29.81 in 10.0 mi South 15.0 mph 25.3 mph N/A   Overcast
4:15 AM 76.6 °F - 69.3 °F 78% 29.82 in 10.0 mi South 20.7 mph 25.3 mph N/A   Overcast
4:35 AM 76.5 °F - 69.3 °F 78% 29.81 in 10.0 mi South 17.3 mph 25.3 mph N/A   Overcast
4:55 AM 76.1 °F - 69.1 °F 79% 29.79 in 10.0 mi SSE 24.2 mph 28.8 mph N/A   Overcast
5:15 AM 76.1 °F - 69.1 °F 79% 29.79 in 10.0 mi South 19.6 mph 27.6 mph N/A   Overcast
5:35 AM 76.1 °F - 68.9 °F 78% 29.79 in 10.0 mi South 20.7 mph 28.8 mph N/A   Overcast
5:55 AM 76.1 °F - 68.9 °F 78% 29.79 in 10.0 mi South 16.1 mph 25.3 mph N/A   Overcast
6:15 AM 76.1 °F - 68.9 °F 78% 29.78 in 10.0 mi South 18.4 mph 26.5 mph N/A   Mostly Cloudy
6:35 AM 75.6 °F - 68.5 °F 79% 29.77 in 10.0 mi SSE 20.7 mph 31.1 mph N/A   Scattered Clouds
6:55 AM 75.2 °F - 68.5 °F 80% 29.78 in 10.0 mi South 20.7 mph - N/A   Clear
7:15 AM 75.2 °F - 68.5 °F 80% 29.77 in 10.0 mi SSE 19.6 mph 28.8 mph N/A   Clear
7:35 AM 75.2 °F - 68.4 °F 79% 29.78 in 10.0 mi SSE 24.2 mph 29.9 mph N/A   Clear
7:55 AM 75.2 °F - 68.9 °F 81% 29.78 in 7.0 mi SSE 19.6 mph 27.6 mph N/A   Clear
8:15 AM 75.9 °F - 68.9 °F 79% 29.78 in 10.0 mi South 18.4 mph 29.9 mph N/A   Clear
8:35 AM 76.3 °F - 68.9 °F 78% 29.78 in 10.0 mi South 25.3 mph 29.9 mph N/A   Scattered Clouds
8:55 AM 76.6 °F - 68.9 °F 77% 29.78 in 10.0 mi South 21.9 mph 32.2 mph N/A   Mostly Cloudy
9:15 AM 77.4 °F - 68.5 °F 74% 29.78 in 10.0 mi South 27.6 mph 33.4 mph N/A   Overcast
9:35 AM 78.4 °F - 68.7 °F 72% 29.78 in 10.0 mi South 25.3 mph 34.5 mph N/A   Overcast
9:55 AM 78.8 °F - 68.2 °F 70% 29.79 in 10.0 mi South 26.5 mph 35.7 mph N/A   Mostly Cloudy
10:15 AM 79.5 °F - 68.0 °F 68% 29.78 in 10.0 mi South 25.3 mph 35.7 mph N/A   Scattered Clouds
10:35 AM 80.6 °F 83.2 °F 68.0 °F 65% 29.77 in 10.0 mi South 27.6 mph 35.7 mph N/A   Scattered Clouds
10:55 AM 81.7 °F 84.5 °F 68.0 °F 63% 29.76 in 10.0 mi South 21.9 mph 32.2 mph N/A   Scattered Clouds
11:15 AM 82.4 °F 85.2 °F 67.6 °F 61% 29.75 in 10.0 mi South 25.3 mph 33.4 mph N/A   Clear
11:35 AM 83.5 °F 86.4 °F 67.6 °F 59% 29.74 in 10.0 mi South 23.0 mph 32.2 mph N/A   Clear
11:55 AM 84.6 °F 87.4 °F 67.3 °F 56% 29.73 in 10.0 mi South 25.3 mph 31.1 mph N/A   Clear
12:15 PM 85.8 °F 88.5 °F 66.7 °F 53% 29.71 in 10.0 mi South 19.6 mph 28.8 mph N/A   Clear
12:35 PM 86.7 °F 89.3 °F 66.4 °F 51% 29.69 in 10.0 mi South 20.7 mph 27.6 mph N/A   Clear
12:55 PM 86.9 °F 89.3 °F 66.0 °F 50% 29.68 in 10.0 mi South 19.6 mph 26.5 mph N/A   Clear
1:15 PM 88.9 °F 91.0 °F 65.7 °F 46% 29.66 in 10.0 mi South 15.0 mph 26.5 mph N/A   Clear
1:35 PM 89.1 °F 90.6 °F 64.6 °F 44% 29.65 in 10.0 mi South 17.3 mph 23.0 mph N/A   Clear
1:55 PM 89.8 °F 91.0 °F 64.0 °F 42% 29.64 in 10.0 mi SSW 16.1 mph 25.3 mph N/A   Clear
2:15 PM 90.7 °F 92.1 °F 64.0 °F 41% 29.63 in 10.0 mi SSW 17.3 mph 23.0 mph N/A   Clear
2:35 PM 90.0 °F 91.0 °F 63.1 °F 41% 29.61 in 10.0 mi South 15.0 mph - N/A   Clear
2:55 PM 90.1 °F 91.2 °F 63.5 °F 41% 29.60 in 10.0 mi South 15.0 mph 19.6 mph N/A   Clear
3:15 PM 90.5 °F 90.7 °F 61.9 °F 38% 29.60 in 10.0 mi South 15.0 mph 19.6 mph N/A   Clear
3:35 PM 90.9 °F 90.9 °F 61.0 °F 37% 29.60 in 10.0 mi South 15.0 mph 18.4 mph N/A   Clear
3:55 PM 90.5 °F 89.8 °F 59.4 °F 35% 29.59 in 10.0 mi SSW 13.8 mph 18.4 mph N/A   Clear
4:15 PM 90.7 °F 89.5 °F 57.7 °F 33% 29.59 in 10.0 mi SSW 11.5 mph - N/A   Clear
4:35 PM 90.9 °F 90.0 °F 58.8 °F 34% 29.59 in 10.0 mi South 12.7 mph 16.1 mph N/A   Clear
4:55 PM 91.0 °F 90.5 °F 60.1 °F 35% 29.58 in 10.0 mi South 17.3 mph - N/A   Clear
5:15 PM 90.7 °F 90.7 °F 61.2 °F 37% 29.58 in 10.0 mi South 16.1 mph 21.9 mph N/A   Clear
5:35 PM 89.2 °F 89.3 °F 61.3 °F 39% 29.58 in 10.0 mi South 11.5 mph - N/A   Clear
5:55 PM 87.1 °F 90.6 °F 68.0 °F 53% 29.59 in 10.0 mi SSE 12.7 mph - N/A   Clear
6:15 PM 85.3 °F 88.8 °F 68.5 °F 57% 29.59 in 10.0 mi SSE 16.1 mph - N/A   Clear
6:35 PM 84.2 °F 87.9 °F 68.7 °F 60% 29.60 in 7.0 mi SSE 15.0 mph 18.4 mph N/A   Scattered Clouds
6:55 PM 82.6 °F 86.1 °F 69.1 °F 64% 29.60 in 10.0 mi South 13.8 mph - N/A   Scattered Clouds
7:15 PM 81.5 °F 84.8 °F 69.3 °F 66% 29.60 in 10.0 mi SSE 16.1 mph 19.6 mph N/A   Scattered Clouds
7:35 PM 80.8 °F 83.9 °F 69.4 °F 68% 29.61 in 10.0 mi SSE 12.7 mph - N/A   Scattered Clouds
7:55 PM 79.7 °F - 69.4 °F 71% 29.62 in 10.0 mi SSE 13.8 mph 18.4 mph N/A   Clear
8:15 PM 78.8 °F - 69.8 °F 74% 29.62 in 10.0 mi SSE 17.3 mph 21.9 mph N/A   Clear
8:35 PM 78.1 °F - 69.8 °F 76% 29.62 in 7.0 mi SSE 15.0 mph - N/A   Clear
8:55 PM 77.9 °F - 70.0 °F 76% 29.63 in 10.0 mi South 16.1 mph 21.9 mph N/A   Clear
9:15 PM 77.2 °F - 70.3 °F 79% 29.63 in 10.0 mi SSE 17.3 mph 21.9 mph N/A   Clear
9:35 PM 77.0 °F - 70.7 °F 81% 29.64 in 10.0 mi South 11.5 mph 21.9 mph N/A   Clear
9:55 PM 79.0 °F - 70.0 °F 74% 29.71 in 10.0 mi West 10.4 mph 17.3 mph N/A   Mostly Cloudy
10:15 PM 77.5 °F - 49.3 °F 37% 29.72 in 10.0 mi North 12.7 mph 20.7 mph N/A   Mostly Cloudy
10:35 PM 75.2 °F - 43.3 °F 32% 29.73 in 10.0 mi North 8.1 mph 18.4 mph N/A   Mostly Cloudy
10:55 PM 74.5 °F - 42.6 °F 32% 29.73 in 10.0 mi North 8.1 mph - N/A   Mostly Cloudy
11:15 PM 73.8 °F - 41.7 °F 32% 29.75 in 10.0 mi North 9.2 mph - N/A   Mostly Cloudy
11:35 PM 73.4 °F - 40.5 °F 30% 29.76 in 10.0 mi North 9.2 mph - N/A   Overcast
11:55 PM 73.0 °F - 39.4 °F 30% 29.76 in 10.0 mi North 9.2 mph - N/A   Overcast